Weather observations for the past three days for
Galena, Edward G. Pitka Sr. Airport
Metric (Imperial)
Date Time (akdt) Wind (kph) Vis. (km) Weather Sky Cond. Temperature (ºC) Relative Humidity Wind Chill (°C) Heat Index (°C) Pressure Precipitation (cm)
Air Dwpt 6 hour altimeter (cm) sea level (mb) 1 hr 3 hr 6 hr
Max. Min.
21 07:56 NW 6 16.09 Partly Cloudy SCT100 13.3 9.4 77% 76.02 1013.5
21 06:56 Calm 16.09 A Few Clouds FEW100 13.3 8.9 75% 76.02 1013.5
21 05:56 Calm 16.09 Fair CLR 13.3 8.3 72% 76 1013.1
21 04:56 N 9 16.09 Fair CLR 13.3 8.3 72% 75.97 1012.9
21 03:56 NW 7 16.09 Fair CLR 12.2 8.9 21.1 12.2 80% 76 1013.3
21 02:56 Calm 16.09 Fair CLR 13.3 9.4 77% 76 1013.4
21 01:56 N 6 16.09 Mostly Cloudy BKN090 15 9.4 69% 75.97 1012.7
21 00:56 N 6 16.09 A Few Clouds FEW085 16.7 8.9 60% 75.95 1012.6
20 23:56 N 7 16.09 Fair CLR 18.9 8.3 50% 75.95 1012.5
20 22:56 Vrbl 7 16.09 Fair CLR 20 7.8 45% 75.95 1012.5
20 21:56 N 13 16.09 Fair CLR 21.1 8.3 23.3 21.1 44% 75.95 1012.5
20 20:56 N 7 16.09 Fair CLR 22.2 7.2 38% 75.95 1012.4
20 19:56 NW 11 16.09 Fair CLR 22.8 6.1 34% 75.95 1012.6
20 18:56 NE 13 16.09 Mostly Cloudy BKN070 22.8 6.7 35% 75.97 1012.9
20 17:56 Vrbl 11 16.09 A Few Clouds FEW070 22.8 6.7 35% 76 1013.3
20 16:56 W 19 16.09 Fair CLR 22.2 6.1 35% 76.05 1013.9
20 15:56 W 13 16.09 Fair CLR 21.7 6.1 22.2 16.7 36% 76.1 1014.6
20 14:56 Vrbl 6 16.09 Partly Cloudy SCT060 21.1 7.2 41% 76.15 1015.2
20 13:56 Calm 16.09 A Few Clouds FEW050 20.6 6.7 41% 76.17 1015.8
20 12:56 Vrbl 7 16.09 A Few Clouds FEW050 20.6 8.3 45% 76.2 1016.1
20 11:56 NW 7 16.09 Fair CLR 19.4 8.9 51% 76.23 1016.4
20 10:56 Vrbl 9 16.09 Fair CLR 18.3 10 59% 76.28 1017.0
20 09:56 N 7 16.09 Partly Cloudy SCT095 16.7 10 16.7 8.3 65% 76.3 1017.2
20 08:56 S 6 16.09 Overcast OVC080 14.4 10.6 78% 76.3 1017.4
20 07:56 N 6 16.09 Overcast OVC085 13.3 9.4 77% 76.3 1017.5
20 06:56 Calm 16.09 Overcast OVC095 11.7 9.4 86% 76.33 1017.6
20 05:56 Calm 16.09 Fair CLR 11.1 7.8 80% 76.33 1017.5
20 04:56 N 6 16.09 A Few Clouds FEW100 9.4 7.8 90% 76.3 1017.4
20 03:56 Calm 16.09 Overcast OVC100 11.1 8.3 18.3 9.4 83% 76.33 1017.6
20 02:56 Calm 16.09 A Few Clouds FEW110 11.1 8.9 86% 76.3 1017.2
20 01:56 Calm 16.09 Fair CLR 11.7 8.9 83% 76.28 1017.1
20 00:56 N 6 16.09 Fair CLR 10.6 8.3 86% 76.28 1017.1
19 23:56 NW 6 16.09 Fair CLR 16.7 7.8 56% 76.25 1016.7
19 22:56 Calm 16.09 Fair CLR 17.8 7.8 52% 76.23 1016.5
19 21:56 N 6 16.09 Fair CLR 18.3 7.2 18.9 17.2 49% 76.23 1016.3
19 20:56 Vrbl 6 16.09 Fair CLR 18.3 7.8 51% 76.2 1016.1
19 19:56 Calm 16.09 Fair CLR 18.3 6.7 47% 76.2 1016.1
19 18:56 W 11 16.09 Partly Cloudy SCT070 18.3 7.8 51% 76.23 1016.2
19 17:56 W 11 16.09 Overcast FEW050 OVC070 18.3 7.8 51% 76.23 1016.3
19 16:56 W 9 16.09 Overcast OVC060 17.2 8.3 56% 76.23 1016.5
19 15:56 W 11 16.09 Overcast OVC065 17.8 8.9 17.8 14.4 56% 76.23 1016.5
19 14:56 W 11 16.09 Overcast OVC044 16.1 8.9 63% 76.25 1016.5
19 13:56 W 13 16.09 Overcast OVC045 17.2 8.3 56% 76.23 1016.3
19 12:56 Calm 16.09 Overcast SCT044 OVC055 16.7 8.9 60% 76.2 1016.1
19 11:56 W 9 16.09 Mostly Cloudy BKN030 BKN039 BKN046 16.1 9.4 65% 76.2 1015.9
19 10:56 S 6 16.09 Mostly Cloudy BKN090 15.6 9.4 67% 76.2 1015.8
19 09:56 SE 6 16.09 Overcast OVC090 14.4 8.9 14.4 12.8 70% 76.17 1015.6
19 08:56 SE 11 16.09 Partly Cloudy SCT095 14.4 9.4 72% 76.15 1015.4
19 07:56 S 7 16.09 Mostly Cloudy SCT085 BKN110 13.3 10 81% 76.12 1014.9
19 06:56 E 7 16.09 Light Rain BKN060 OVC080 12.8 10 83% 76.1 1014.5
19 05:56 W 11 16.09 Overcast BKN075 OVC100 12.8 10 83% 76.07 1014.2
19 04:56 SW 20 16.09 Overcast BKN090 OVC110 13.9 9.4 74% 76.07 1014.1
19 03:56 SW 7 16.09 Overcast SCT070 OVC090 13.9 10 17.2 13.3 78% 76.02 1013.5 0.05
19 02:56 Calm 16.09 Overcast OVC090 13.3 11.1 87% 75.95 1012.7
19 01:56 W 15 16.09 Overcast OVC100 15 9.4 69% 75.9 1011.9
19 00:56 Calm 16.09 Mostly Cloudy BKN110 15.6 9.4 67% 75.87 1011.4 0.05
18 23:56 SW 9 16.09 Fair CLR 16.7 9.4 62% 75.82 1010.7
18 22:56 E 6 16.09 Fair CLR 14.4 12.8 90% 75.77 1010.2 0.05
18 21:56 E 11 4.83 Heavy Rain FEW016 SCT050 OVC070 15.6 10.6 23.9 15.6 72% 75.72 1009.7 0.28 0.3
18 20:56 E 17 16.09 Partly Cloudy SCT095 16.7 10.6 67% 75.72 1009.6 0.03
18 19:56 W 15 16.09 Fair CLR 22.2 7.2 38% 75.67 1008.7
18 18:56 SW 19 16.09 Fair CLR 23.3 6.7 34% 75.64 1008.6
18 17:56 SW 15 16.09 A Few Clouds FEW075 23.3 6.1 33% 75.64 1008.5
18 16:56 W 15 16.09 A Few Clouds FEW080 23.3 7.8 37% 75.67 1008.8
18 15:56 SW 15 16.09 Mostly Cloudy FEW070 BKN100 BKN110 22.8 6.7 23.3 17.2 35% 75.69 1009.1
18 14:56 W 20 16.09 Mostly Cloudy SCT050 BKN065 21.1 10 49% 75.69 1009.1
18 13:56 Vrbl 6 16.09 Mostly Cloudy BKN055 BKN095 20.6 10.6 53% 75.69 1009.3
18 12:56 Calm 16.09 Mostly Cloudy FEW048 BKN100 19.4 11.1 59% 75.72 1009.6
18 11:56 E 9 16.09 Mostly Cloudy BKN110 19.4 12.2 63% 75.74 1009.7
18 10:56 Vrbl 6 16.09 Mostly Cloudy BKN120 18.9 11.1 61% 75.74 1009.8
18 09:56 S 7 16.09 Partly Cloudy FEW085 SCT110 17.8 11.1 17.8 13.9 65% 75.74 1009.8 0.03
18 08:56 SE 7 16.09 Fair CLR 15.6 12.2 80% 75.74 1009.7
Date Time (akdt) Wind (kph) Vis. (km) Weather Sky Cond. Air Dwpt Max. Min. Relative Humidity Wind Chill (°C) Heat Index (°C) altimeter (cm) sea level (mb) 1 hr 3 hr 6 hr
6 hour
Temperature (ºC) Pressure Precipitation (cm)